Weather History for Phoenix Deer Valley, AZ

Change the Weather History Date:

Saturday, August 17, 2013

  Actual Average Record
Temperature  
Mean Temperature 98 °F -  
Max Temperature 108 °F 99 °F 108 °F (2013)
Min Temperature 88 °F 79 °F 75 °F (2001)
Cooling Degree Days 34    
Growing Degree Days 48 (Base 50)    
Moisture  
Dew Point 56 °F    
Average Humidity 26    
Maximum Humidity 36    
Minimum Humidity 16    
Precipitation  
Precipitation 0.00 in - - ()
Sea Level Pressure  
Sea Level Pressure 29.79 in    
Wind  
Wind Speed 7 mph (East)    
Max Wind Speed 24 mph    
Max Gust Speed 33 mph    
Visibility 10 miles    
Events      
Averages and records for this station are not official NWS values.
T = Trace of Precipitation, MM = Missing Value Source: NWS Daily Summary

Daily Weather History Graph

Daily Weather History Graph

Search for Another Location

Airport:

Trip Planner

Search our weather history database for the weather conditions in past years. The results will help you decide how hot, cold, wet, or windy it might be!

Date:

Astronomy

Aug. 17, 2013 Rise Set
Actual Time 5:51 AM MST 7:11 PM MST
Civil Twilight 5:25 AM MST 7:38 PM MST
Nautical Twilight 4:54 AM MST 8:09 PM MST
Astronomical Twilight 4:21 AM MST 8:41 PM MST
Moon 4:26 PM MST (8/17) 2:04 AM MST (8/17)
Length of Visible Light 14h 12m
Length of Day
13h 20m
Waxing Gibbous, 85% of the Moon is Illuminated
Aug 17
Waxing Gibbous
Aug 20
Full
Aug 28
Last Quarter
Sep 5
New
Sep 12
First Quarter

Hourly Weather History & Observations

Time (MST) Temp. Heat Index Dew Point Humidity Pressure Visibility Wind Dir Wind Speed Gust Speed Precip Events Conditions
12:53 AM 93.9 °F 92.6 °F 57.0 °F 29% 29.80 in 10.0 mi East 5.8 mph - N/A   Clear
1:53 AM 91.9 °F 90.8 °F 57.9 °F 32% 29.80 in 10.0 mi East 3.5 mph - N/A   Clear
2:53 AM 91.0 °F 90.0 °F 57.9 °F 33% 29.79 in 10.0 mi NE 5.8 mph - N/A   Clear
3:53 AM 91.0 °F 90.0 °F 57.9 °F 33% 29.79 in 10.0 mi ENE 6.9 mph - N/A   Clear
4:53 AM 89.1 °F 88.0 °F 57.9 °F 35% 29.81 in 10.0 mi Calm Calm - N/A   Clear
5:53 AM 89.1 °F 88.0 °F 57.9 °F 35% 29.83 in 10.0 mi Calm Calm - N/A   Clear
6:53 AM 90.0 °F 88.8 °F 57.9 °F 34% 29.84 in 10.0 mi ENE 3.5 mph - N/A   Clear
7:53 AM 91.9 °F 91.2 °F 59.0 °F 33% 29.86 in 10.0 mi East 5.8 mph - N/A   Clear
8:53 AM 93.9 °F 92.9 °F 57.9 °F 30% 29.86 in 10.0 mi East 5.8 mph - N/A   Clear
9:53 AM 97.0 °F 96.1 °F 57.9 °F 27% 29.86 in 10.0 mi South 4.6 mph - N/A   Clear
10:53 AM 99.0 °F 97.3 °F 55.0 °F 23% 29.83 in 10.0 mi Calm Calm - N/A   Clear
11:53 AM 100.9 °F 99.6 °F 55.0 °F 22% 29.80 in 10.0 mi Variable 4.6 mph - N/A   Clear
12:53 PM 105.1 °F 104.4 °F 55.9 °F 20% 29.75 in 10.0 mi SE 8.1 mph - N/A   Clear
1:53 PM 105.1 °F 104.4 °F 55.9 °F 20% 29.73 in 10.0 mi Variable 4.6 mph - N/A   Clear
2:53 PM 107.1 °F 105.4 °F 53.1 °F 17% 29.70 in 10.0 mi SSW 8.1 mph - N/A   Clear
3:53 PM 107.1 °F 105.4 °F 53.1 °F 17% 29.67 in 10.0 mi WSW 6.9 mph 17.3 mph N/A   Clear
4:53 PM 108.0 °F - 52.0 °F 16% 29.66 in 10.0 mi South 6.9 mph - N/A   Clear
5:53 PM 107.1 °F - 52.0 °F 16% 29.66 in 10.0 mi West 6.9 mph - N/A   Clear
6:53 PM 102.9 °F 100.9 °F 53.1 °F 19% 29.70 in 10.0 mi NE 16.1 mph 28.8 mph N/A   Partly Cloudy
7:53 PM 97.0 °F 95.3 °F 55.9 °F 25% 29.73 in 10.0 mi North 16.1 mph 25.3 mph 0.00 in   Partly Cloudy
8:06 PM 96.8 °F 95.1 °F 55.4 °F 25% 29.82 in 10.0 mi North 24.2 mph 31.1 mph N/A   Partly Cloudy
8:53 PM 93.9 °F 92.0 °F 55.0 °F 27% 29.76 in 10.0 mi NNE 24.2 mph 33.4 mph N/A   Clear
9:53 PM 91.9 °F 89.5 °F 54.0 °F 27% 29.83 in 10.0 mi East 13.8 mph 33.4 mph N/A   Clear
10:53 PM 93.0 °F 90.8 °F 54.0 °F 27% 29.88 in 10.0 mi East 8.1 mph - N/A   Partly Cloudy
11:53 PM 88.0 °F 86.9 °F 57.9 °F 36% 29.88 in 10.0 mi SE 11.5 mph - N/A   Scattered Clouds